EW5093 Weather Reports


time (UTC)temp
F
wind
direction
speed
knots
gust
knots
rain 1hr
in
rain 24hr
in
rain mn
in
humidity
%
barometer
mb
20260507095511 54 355 0.9 2.6 0.00 0.00 0.00 71 1020.4
20260507095015 54 333 0.9 2.6 0.00 0.00 0.00 71 1020.4
20260507094531 54 339 0.0 2.6 0.00 0.00 0.00 71 1020.5
20260507094010 54 333 0.0 3.5 0.00 0.00 0.00 71 1020.4
20260507093512 54 0 0.9 7.8 0.00 0.00 0.00 71 1020.5
20260507093030 54 0 0.9 7.8 0.00 0.00 0.00 70 1020.6
20260507092515 54 302 0.9 5.2 0.00 0.00 0.00 70 1020.7
20260507092014 54 333 1.7 5.2 0.00 0.00 0.00 70 1020.6
20260507091538 54 335 1.7 4.3 0.00 0.00 0.00 70 1020.6
20260507091015 54 286 1.7 4.3 0.00 0.00 0.00 70 1020.7
20260507090515 55 305 0.9 5.2 0.00 0.00 0.00 70 1020.7
20260507090039 55 5 0.9 5.2 0.00 0.00 0.00 70 1020.7
20260507085513 55 9 0.9 5.2 0.00 0.00 0.00 70 1020.8
20260507085015 55 335 0.9 3.5 0.00 0.00 0.00 70 1020.8
20260507084537 55 278 0.0 4.3 0.00 0.00 0.00 70 1020.8
20260507084012 55 335 0.0 4.3 0.00 0.00 0.00 71 1020.7
20260507083515 55 0 0.0 3.5 0.00 0.00 0.00 71 1020.7
20260507083037 55 20 0.0 3.5 0.00 0.00 0.00 71 1020.7
20260507082514 55 0 0.9 3.5 0.00 0.00 0.00 71 1020.7
20260507082016 55 301 0.9 3.5 0.00 0.00 0.00 72 1020.8
20260507081532 55 306 0.0 2.6 0.00 0.00 0.00 72 1020.8
20260507081015 55 0 0.9 5.2 0.00 0.00 0.00 72 1020.8
20260507080516 55 355 0.0 5.2 0.00 0.00 0.00 73 1020.7
20260507080031 55 286 0.0 5.2 0.00 0.00 0.00 73 1020.7
20260507075515 55 281 0.9 5.2 0.00 0.00 0.00 73 1020.7
20260507075015 55 5 0.9 7.8 0.00 0.00 0.00 72 1020.7
20260507074542 55 294 0.0 7.8 0.00 0.00 0.00 72 1020.8
20260507074015 55 329 1.7 7.0 0.00 0.00 0.00 72 1020.7
20260507073514 55 80 1.7 7.0 0.00 0.00 0.00 73 1020.7
20260507073032 55 0 0.9 5.2 0.00 0.00 0.00 73 1020.7
20260507072513 55 352 0.9 3.5 0.00 0.00 0.00 73 1020.6
20260507072012 55 317 0.9 3.5 0.00 0.00 0.00 73 1020.6
20260507071529 55 0 0.0 3.5 0.00 0.00 0.00 73 1020.6
20260507071014 55 349 0.0 3.5 0.00 0.00 0.00 73 1020.6
20260507070513 55 311 0.0 6.1 0.00 0.00 0.00 73 1020.5
20260507070030 55 0 0.9 6.1 0.00 0.00 0.00 73 1020.5
20260507065517 55 0 0.0 3.5 0.00 0.00 0.00 73 1020.5
20260507065013 55 275 0.9 3.5 0.00 0.00 0.00 73 1020.5
20260507064537 55 321 0.0 5.2 0.00 0.00 0.00 73 1020.5
20260507064016 55 0 0.0 5.2 0.00 0.00 0.00 72 1020.6
20260507063515 55 5 0.9 5.2 0.00 0.00 0.00 72 1020.6
20260507063035 55 0 0.9 10.4 0.00 0.00 0.00 72 1020.5
20260507062513 55 311 0.9 10.4 0.00 0.00 0.00 72 1020.6
20260507062014 55 313 1.7 8.7 0.00 0.00 0.00 73 1020.6
20260507061530 55 287 3.5 8.7 0.00 0.00 0.00 73 1020.6
20260507061009 55 329 0.9 8.7 0.00 0.00 0.00 74 1020.7
20260507060512 55 287 1.7 7.8 0.00 0.00 0.00 74 1020.7
20260507060032 56 46 0.9 7.8 0.00 0.00 0.00 74 1020.6
20260507055511 56 355 0.9 7.0 0.00 0.00 0.00 74 1020.7
20260507055012 56 336 0.9 7.0 0.00 0.00 0.00 75 1020.7
20260507054532 56 327 0.0 4.3 0.00 0.00 0.00 75 1020.7
20260507054016 56 329 0.9 4.3 0.00 0.00 0.00 75 1020.7
20260507053513 56 311 0.9 4.3 0.00 0.00 0.00 75 1020.7
20260507053032 56 296 0.9 8.7 0.00 0.00 0.00 75 1020.7
20260507052513 56 329 0.0 8.7 0.00 0.00 0.00 76 1020.7
20260507052013 56 22 1.7 7.8 0.00 0.00 0.00 75 1020.7
20260507051539 56 55 1.7 9.6 0.00 0.00 0.00 76 1020.7
20260507051012 56 355 2.6 9.6 0.00 0.00 0.00 75 1020.7
20260507050511 56 350 0.9 5.2 0.00 0.00 0.00 75 1020.7
20260507050028 56 302 1.7 5.2 0.00 0.00 0.00 75 1020.7
20260507045513 56 360 0.9 8.7 0.00 0.00 0.00 75 1020.7
20260507045013 57 344 1.7 8.7 0.00 0.00 0.00 75 1020.7
20260507044530 57 323 1.7 7.8 0.00 0.00 0.00 74 1020.7
20260507044013 57 302 1.7 7.0 0.00 0.00 0.00 74 1020.8
20260507043514 57 5 1.7 7.8 0.00 0.00 0.00 74 1020.7
20260507043032 57 303 0.9 10.4 0.00 0.00 0.00 74 1020.7
20260507042513 57 348 1.7 10.4 0.00 0.00 0.00 74 1020.7
20260507042013 57 307 1.7 9.6 0.00 0.00 0.00 74 1020.5
20260507041532 57 34 2.6 9.6 0.00 0.00 0.00 73 1020.5
20260507041013 58 321 2.6 10.4 0.00 0.00 0.00 73 1020.5
20260507040514 58 9 2.6 10.4 0.00 0.00 0.00 73 1020.5
20260507040029 58 17 1.7 7.8 0.00 0.00 0.00 72 1020.5
20260507035513 58 273 1.7 7.8 0.00 0.00 0.00 72 1020.4
20260507035011 58 351 0.9 7.8 0.00 0.00 0.00 72 1020.4
20260507034550 58 332 1.7 11.3 0.00 0.00 0.00 72 1020.3
20260507034013 59 320 2.6 11.3 0.00 0.00 0.00 71 1020.1
20260507033516 59 344 2.6 8.7 0.00 0.00 0.00 71 1020.1
20260507033033 59 344 1.7 6.1 0.00 0.00 0.00 72 1020.1
20260507032511 59 315 0.9 8.7 0.00 0.00 0.00 72 1019.9
20260507032010 59 347 1.7 8.7 0.00 0.00 0.00 72 1019.9
20260507031530 59 341 0.9 8.7 0.00 0.00 0.00 72 1019.7
20260507031010 59 13 1.7 8.7 0.00 0.00 0.00 71 1019.8
20260507030513 60 345 1.7 7.8 0.00 0.00 0.00 71 1019.8
20260507030035 60 290 1.7 7.8 0.00 0.00 0.00 71 1019.7
20260507025512 60 360 0.9 4.3 0.00 0.00 0.00 71 1019.6
20260507025009 60 290 1.7 8.7 0.00 0.00 0.00 70 1019.7
20260507024548 61 328 1.7 8.7 0.00 0.00 0.00 70 1019.6
20260507024009 61 314 1.7 6.1 0.00 0.00 0.00 71 1019.5
20260507023517 61 325 0.0 6.1 0.00 0.00 0.00 70 1019.4
20260507023031 61 338 0.9 7.0 0.00 0.00 0.00 70 1019.4
20260507022511 61 335 0.9 9.6 0.00 0.00 0.00 70 1019.4
20260507022017 61 360 2.6 9.6 0.00 0.00 0.00 70 1019.4
20260507021532 62 350 2.6 9.6 0.00 0.00 0.00 69 1019.4
20260507021013 62 5 1.7 7.8 0.00 0.00 0.00 68 1019.4
20260507020513 62 301 2.6 8.7 0.00 0.00 0.00 68 1019.4
20260507020030 62 298 1.7 8.7 0.00 0.00 0.00 68 1019.5
20260507015514 63 301 2.6 6.1 0.00 0.00 0.00 68 1019.5
20260507015013 63 315 1.7 7.8 0.00 0.00 0.00 68 1019.5
20260507014540 63 338 0.9 10.4 0.00 0.00 0.00 68 1019.6
20260507014011 62 283 2.6 10.4 0.00 0.00 0.00 68 1019.6
20260507013509 63 332 3.5 9.6 0.00 0.00 0.00 67 1019.6
20260507013034 63 270 3.5 9.6 0.00 0.00 0.00 67 1019.6
20260507012512 63 348 2.6 9.6 0.00 0.00 0.00 66 1019.7
20260507012014 64 355 1.7 9.6 0.00 0.00 0.00 65 1019.6
20260507011538 64 5 2.6 9.6 0.00 0.00 0.00 65 1019.6
20260507011011 65 306 2.6 9.6 0.00 0.00 0.00 64 1019.5
20260507010510 65 320 1.7 9.6 0.00 0.00 0.00 63 1019.4
20260507010032 67 28 2.6 10.4 0.00 0.00 0.00 62 1019.5
20260507005515 67 338 0.9 11.3 0.00 0.00 0.00 62 1019.4
20260507005015 67 238 2.6 11.3 0.00 0.00 0.00 62 1019.4
20260507004531 68 0 2.6 11.3 0.00 0.00 0.00 61 1019.3
20260507004014 68 329 2.6 8.7 0.00 0.00 0.00 60 1019.3
20260507003512 68 329 2.6 7.8 0.00 0.00 0.00 60 1019.2
20260507003030 68 355 1.7 7.8 0.00 0.00 0.00 61 1019.2
20260507002513 68 191 2.6 7.8 0.00 0.00 0.00 62 1019.2
20260507002013 68 355 2.6 7.8 0.00 0.00 0.00 61 1019.2
20260507001540 68 284 1.7 7.8 0.00 0.00 0.00 61 1019.1
20260507001010 68 18 0.9 5.2 0.00 0.00 0.00 62 1019.1
20260507000514 69 313 1.7 5.2 0.00 0.00 0.00 62 1019.1
20260507000031 69 292 1.7 8.7 0.00 0.00 0.00 62 1019.2
20260506235515 69 283 0.9 8.7 0.00 0.00 0.00 62 1019.0
20260506235010 69 316 1.7 8.7 0.00 0.00 0.00 63 1018.9
20260506234532 69 340 0.9 6.1 0.00 0.00 0.00 63 1019.1
20260506234014 69 288 0.9 7.0 0.00 0.00 0.00 63 1018.9
20260506233514 69 278 1.7 7.0 0.00 0.00 0.00 63 1018.9
20260506233030 69 298 1.7 7.0 0.00 0.00 0.00 63 1019.0
20260506232516 69 352 1.7 7.0 0.00 0.00 0.00 64 1019.0
20260506232010 70 318 1.7 7.0 0.00 0.00 0.00 62 1019.1
20260506231533 69 0 0.9 7.0 0.00 0.00 0.00 64 1019.0
20260506231014 69 321 0.9 4.3 0.00 0.00 0.00 64 1019.1
20260506230513 69 346 0.9 6.1 0.00 0.00 0.00 63 1019.1
20260506230032 69 288 0.9 7.0 0.00 0.00 0.00 63 1019.1
20260506225511 70 317 1.7 7.0 0.00 0.00 0.00 61 1019.1
20260506225014 71 274 1.7 6.1 0.00 0.00 0.00 59 1019.2
20260506224530 71 5 0.9 4.3 0.00 0.00 0.00 61 1019.3
20260506224012 70 0 0.9 4.3 0.00 0.00 0.00 61 1019.4
20260506223513 70 291 0.9 5.2 0.00 0.00 0.00 62 1019.4
20260506223032 70 52 0.0 5.2 0.00 0.00 0.00 62 1019.5
20260506222514 71 342 0.9 5.2 0.00 0.00 0.00 60 1019.6
20260506222011 70 22 0.9 5.2 0.00 0.00 0.00 60 1019.6
20260506221530 70 56 0.0 2.6 0.00 0.00 0.00 61 1019.6
20260506221010 69 281 0.9 3.5 0.00 0.00 0.00 61 1019.6
20260506220513 70 355 0.9 3.5 0.00 0.00 0.00 59 1019.6
20260506220034 70 0 0.0 3.5 0.00 0.00 0.00 60 1019.7
20260506215514 70 36 0.9 3.5 0.00 0.00 0.00 62 1019.7
20260506215013 68 43 0.9 3.5 0.00 0.00 0.00 64 1019.7
20260506214531 67 0 0.0 3.5 0.00 0.00 0.00 65 1019.7
20260506214012 66 135 1.7 3.5 0.00 0.00 0.00 66 1019.5
20260506213512 66 87 0.9 5.2 0.00 0.00 0.00 68 1019.6
20260506213032 66 64 0.0 5.2 0.00 0.00 0.00 66 1019.6
20260506212513 68 107 0.9 2.6 0.00 0.00 0.00 65 1019.6
20260506212010 67 0 0.0 3.5 0.00 0.00 0.00 64 1019.7
20260506211534 67 360 0.0 3.5 0.00 0.00 0.00 65 1019.7
20260506211014 67 32 1.7 3.5 0.00 0.00 0.00 65 1019.9
20260506210514 66 17 0.9 2.6 0.00 0.00 0.00 67 1019.9
20260506210031 65 94 0.9 3.5 0.00 0.00 0.00 69 1020.0
20260506205515 65 0 0.9 3.5 0.00 0.00 0.00 67 1020.0
20260506205013 65 332 0.9 3.5 0.00 0.00 0.00 68 1020.0
20260506204530 65 0 0.0 3.5 0.00 0.00 0.00 68 1020.0
20260506204015 66 0 0.0 3.5 0.00 0.00 0.00 67 1020.0
20260506203513 67 84 0.0 3.5 0.00 0.00 0.00 65 1020.0
20260506203032 67 86 0.0 2.6 0.00 0.00 0.00 66 1019.9
20260506202511 66 0 0.0 3.5 0.00 0.00 0.00 66 1019.9
20260506202011 65 0 0.9 3.5 0.00 0.00 0.00 68 1020.0
20260506201532 65 323 0.9 3.5 0.00 0.00 0.00 69 1019.9
20260506201012 63 360 0.9 3.5 0.00 0.00 0.00 70 1020.0
20260506200513 63 336 0.0 3.5 0.00 0.00 0.00 70 1020.1
20260506200029 63 346 0.0 3.5 0.00 0.00 0.00 73 1020.2
20260506195513 62 287 1.7 3.5 0.00 0.00 0.00 72 1020.2
20260506195010 61 285 0.9 4.3 0.00 0.00 0.00 74 1020.3
20260506194535 61 292 0.9 4.3 0.00 0.00 0.00 74 1020.4
20260506194014 61 324 0.9 3.5 0.00 0.00 0.00 73 1020.5
20260506193512 61 261 0.9 4.3 0.00 0.00 0.00 74 1020.5
20260506193032 61 275 1.7 4.3 0.00 0.00 0.00 73 1020.6
20260506192513 61 333 0.9 6.1 0.00 0.00 0.00 73 1020.6
20260506192014 61 306 0.9 6.1 0.00 0.00 0.00 73 1020.5
20260506191533 61 0 0.9 3.5 0.00 0.00 0.00 74 1020.5
20260506191010 61 5 0.9 3.5 0.00 0.00 0.00 73 1020.4
20260506190511 61 344 0.9 4.3 0.00 0.00 0.00 73 1020.4
20260506190032 61 308 0.9 4.3 0.00 0.00 0.00 73 1020.4
20260506185511 61 240 0.9 4.3 0.00 0.00 0.00 73 1020.3
20260506185016 62 307 0.9 5.2 0.00 0.00 0.00 73 1020.4
20260506184531 62 32 1.7 5.2 0.00 0.00 0.00 73 1020.3
20260506184013 61 9 0.0 4.3 0.00 0.00 0.00 74 1020.2
20260506183513 61 293 0.9 4.3 0.00 0.00 0.00 74 1020.3
20260506183031 60 340 0.9 4.3 0.00 0.00 0.00 76 1020.3
20260506182512 60 0 0.0 2.6 0.00 0.00 0.00 77 1020.1
20260506182010 60 324 0.9 2.6 0.00 0.00 0.00 76 1020.1
20260506181530 60 325 0.0 2.6 0.00 0.00 0.00 76 1020.3
20260506181011 59 0 0.0 3.5 0.00 0.00 0.00 76 1020.3
20260506180514 60 0 0.9 3.5 0.00 0.00 0.00 76 1020.3
20260506180032 59 23 0.0 2.6 0.00 0.00 0.00 76 1020.3
20260506175511 59 0 0.0 2.6 0.00 0.00 0.00 76 1020.2
20260506175014 59 23 0.0 2.6 0.00 0.00 0.00 76 1020.2
20260506174529 59 24 0.0 3.5 0.00 0.00 0.00 77 1020.3
20260506174014 59 0 0.9 3.5 0.00 0.00 0.00 78 1020.2
20260506173514 58 0 0.0 2.6 0.00 0.00 0.00 79 1020.1
20260506173030 58 0 0.9 2.6 0.00 0.00 0.00 78 1020.1
20260506172517 58 0 0.0 3.5 0.00 0.00 0.00 79 1020.0
20260506172018 58 104 0.9 3.5 0.00 0.00 0.00 79 1020.1
20260506171533 58 0 0.0 2.6 0.00 0.00 0.00 78 1019.9
20260506171015 58 96 0.0 2.6 0.00 0.00 0.00 78 1020.0
20260506170516 58 26 0.0 1.7 0.00 0.00 0.00 77 1020.0
20260506170033 58 0 0.0 1.7 0.00 0.00 0.00 78 1019.9
20260506165514 58 0 0.9 1.7 0.00 0.00 0.00 78 1019.9
20260506165017 58 0 0.0 2.6 0.00 0.00 0.00 78 1020.1
20260506164532 58 0 0.0 2.6 0.00 0.00 0.00 78 1020.2
20260506164018 58 0 0.0 2.6 0.00 0.00 0.00 77 1020.0
20260506163514 58 331 0.0 3.5 0.00 0.00 0.00 78 1020.1
20260506163032 58 321 0.0 4.3 0.00 0.00 0.00 78 1020.1
20260506162517 57 355 0.9 4.3 0.00 0.00 0.00 78 1020.0
20260506162015 58 352 0.9 4.3 0.00 0.00 0.00 78 1020.1
20260506161535 57 0 0.0 1.7 0.00 0.00 0.00 79 1019.9
20260506161016 57 0 0.0 1.7 0.00 0.00 0.00 80 1019.8
20260506160515 57 0 0.0 1.7 0.00 0.00 0.00 80 1019.7
20260506160032 57 360 0.0 2.6 0.00 0.00 0.00 80 1019.8
20260506155515 57 0 0.0 2.6 0.00 0.01 0.00 80 1019.7
20260506155015 56 0 0.0 2.6 0.00 0.01 0.00 81 1019.5
20260506154532 56 0 0.0 2.6 0.00 0.01 0.00 80 1019.5
20260506154015 56 0 0.0 3.5 0.00 0.01 0.00 79 1019.4
20260506153514 57 0 0.0 3.5 0.00 0.01 0.00 80 1019.3
20260506153040 56 0 0.0 2.6 0.00 0.01 0.00 81 1019.3
20260506152515 56 57 0.0 2.6 0.00 0.01 0.00 81 1019.5
20260506152016 56 0 0.0 2.6 0.00 0.01 0.00 81 1019.9
20260506151531 56 0 0.0 3.5 0.00 0.01 0.00 81 1020.0
20260506151014 56 0 0.0 4.3 0.00 0.01 0.00 81 1020.1
20260506150515 56 304 0.0 4.3 0.00 0.01 0.00 81 1020.1
20260506150030 56 347 0.0 4.3 0.00 0.01 0.00 81 1020.0
20260506145519 56 0 0.0 4.3 0.00 0.02 0.00 81 1020.0
20260506145016 56 326 0.9 4.3 0.00 0.02 0.00 82 1020.0
20260506144550 56 5 0.9 4.3 0.00 0.02 0.00 82 1020.0
20260506144011 56 329 0.0 5.2 0.00 0.02 0.00 82 1019.7
20260506143513 56 0 0.9 5.2 0.00 0.02 0.00 81 1019.8
20260506143030 56 5 0.9 3.5 0.00 0.02 0.00 81 1019.8
20260506142514 56 36 0.0 3.5 0.00 0.02 0.00 82 1019.6
20260506142013 56 347 0.0 3.5 0.00 0.02 0.00 82 1019.5
20260506141529 56 0 0.9 3.5 0.00 0.02 0.00 82 1019.3
20260506141017 56 0 0.0 3.5 0.00 0.02 0.00 82 1019.1
20260506140513 56 0 0.0 1.7 0.00 0.02 0.00 82 1019.1
20260506140043 56 0 0.0 2.6 0.00 0.02 0.00 82 1019.1
20260506135512 56 346 0.0 2.6 0.00 0.02 0.00 82 1019.2
20260506135016 56 0 0.0 4.3 0.00 0.02 0.00 82 1019.1
20260506134535 56 0 0.9 4.3 0.00 0.02 0.00 82 1019.1
20260506134017 56 339 0.0 3.5 0.00 0.02 0.00 82 1019.0
20260506133510 56 0 0.9 3.5 0.00 0.02 0.00 82 1019.1
20260506133032 56 343 0.9 3.5 0.00 0.02 0.00 82 1018.9
20260506132514 56 0 0.0 3.5 0.00 0.02 0.00 82 1019.0
20260506132012 56 0 0.0 3.5 0.00 0.02 0.00 82 1018.9
20260506131538 56 0 0.0 3.5 0.00 0.02 0.00 82 1018.8
20260506131013 56 338 0.9 2.6 0.00 0.02 0.00 82 1018.7
20260506130513 56 0 0.0 1.7 0.00 0.02 0.00 82 1018.6
20260506130030 56 0 0.0 1.7 0.00 0.02 0.00 82 1018.6
20260506125513 56 0 0.0 1.7 0.00 0.02 0.00 82 1018.6
20260506125013 56 0 0.0 1.7 0.00 0.02 0.00 82 1018.5
20260506124530 56 0 0.0 1.7 0.00 0.02 0.00 82 1018.5
20260506124013 56 0 0.0 1.7 0.00 0.02 0.00 82 1018.4
20260506123511 56 0 0.0 1.7 0.00 0.02 0.00 82 1018.5
20260506123038 56 0 0.0 1.7 0.00 0.02 0.00 82 1018.4
20260506122511 56 0 0.0 1.7 0.00 0.02 0.00 82 1018.4
20260506122012 56 0 0.0 1.7 0.00 0.02 0.00 82 1018.5
20260506121530 56 0 0.0 3.5 0.00 0.02 0.00 82 1018.5
20260506121013 56 0 0.0 3.5 0.00 0.02 0.00 82 1018.5
20260506120510 56 0 0.9 3.5 0.00 0.02 0.00 82 1018.5
20260506120034 56 0 0.0 1.7 0.00 0.02 0.00 81 1018.5
20260506115514 56 0 0.0 3.5 0.00 0.02 0.00 81 1018.4
20260506115012 56 0 0.0 3.5 0.00 0.02 0.00 81 1018.4
20260506114530 56 360 0.9 3.5 0.00 0.02 0.00 81 1018.4
20260506114016 56 317 0.0 2.6 0.00 0.02 0.00 81 1018.3
20260506113513 56 0 0.0 2.6 0.00 0.02 0.00 81 1018.3
20260506113036 56 0 0.9 2.6 0.00 0.02 0.00 81 1018.2
20260506112513 57 0 0.0 1.7 0.00 0.02 0.00 81 1018.2
20260506112010 57 0 0.0 3.5 0.00 0.02 0.00 81 1018.2
20260506111534 57 360 0.9 3.5 0.00 0.02 0.00 81 1018.2
20260506111015 57 258 0.0 2.6 0.00 0.02 0.00 81 1018.0
20260506110515 57 0 0.0 2.6 0.00 0.02 0.00 81 1017.9
20260506110040 57 325 0.0 3.5 0.00 0.02 0.00 81 1017.9
20260506105511 57 294 0.0 3.5 0.00 0.02 0.00 81 1017.7
20260506105016 57 313 0.0 1.7 0.00 0.02 0.00 80 1017.6
20260506104532 57 0 0.0 3.5 0.00 0.02 0.00 80 1017.6
20260506104011 57 0 0.0 3.5 0.00 0.02 0.00 80 1017.5
20260506103514 57 5 0.9 3.5 0.00 0.02 0.00 80 1017.4
20260506103029 57 0 0.0 3.5 0.00 0.02 0.00 80 1017.5
20260506102510 57 0 0.9 3.5 0.00 0.02 0.00 80 1017.4
20260506102011 57 337 0.0 2.6 0.00 0.02 0.00 80 1017.4
20260506101533 57 315 0.9 2.6 0.00 0.02 0.00 80 1017.3
20260506101013 57 0 0.0 2.6 0.00 0.02 0.00 80 1017.3
20260506100514 57 0 0.0 2.6 0.00 0.02 0.00 80 1017.3
20260506100034 57 319 0.0 2.6 0.00 0.02 0.00 80 1017.2